Bookmark and Share
Track history (hours):
 

Ds Blue Wave

Last reported at 2014-Apr-18 12:31 UTC. Time now 2014-Apr-18 13:22 UTC.
Position N 35°06' E 129°06'.

Length 129 m; draft 5.7 m.

Type: Cargo ship. MMSI: 636092200.

NotesDate/timePositionNaut miles runAvg speedWind from/ knotsBaromVisibWave heightAir tempDewpointWater temp
2014-Apr-18 12:31N 35°06' E 129°06'0 0.0
2014-Apr-18 11:31N 35°06' E 129°06'0 0.0
2014-Apr-18 10:25N 35°06' E 129°06'0 0.0
2014-Apr-18 09:31N 35°06' E 129°06'0 0.0
2014-Apr-18 07:25N 35°06' E 129°06'0 0.0
2014-Apr-18 05:23N 35°06' E 129°06'0 0.0
2014-Apr-18 04:17N 35°06' E 129°06'0 0.0
2014-Apr-18 02:23N 35°06' E 129°06'0 0.0
2014-Apr-18 01:08N 35°06' E 129°06'0 0.0
2014-Apr-17 23:30N 35°06' E 129°06'0 0.0
2014-Apr-17 22:30N 35°06' E 129°06'  
2014-Apr-14 17:33N 34°57' E 139°30'1515.0
2014-Apr-14 16:34N 35°07' E 139°43'1212.2
2014-Apr-14 15:34N 35°19' E 139°43'7 7.2
2014-Apr-14 14:33N 35°26' E 139°41'0 0.0
2014-Apr-14 13:33N 35°26' E 139°41'0 0.0
2014-Apr-14 11:33N 35°26' E 139°41'0 0.0
2014-Apr-14 10:30N 35°26' E 139°41'5 4.8
2014-Apr-14 09:34N 35°27' E 139°46'9 9.2
2014-Apr-14 08:33N 35°36' E 139°47'52410.2
2014-Apr-12 05:04N 35°05' E 129°06'1 0.5
2014-Apr-12 03:29N 35°06' E 129°06'0 0.0
2014-Apr-12 02:26N 35°06' E 129°06'0 0.0
2014-Apr-11 23:32N 35°06' E 129°06'0 0.0
2014-Apr-11 22:17N 35°06' E 129°06'0 0.0
2014-Apr-11 21:29N 35°06' E 129°06'0 0.0
2014-Apr-11 20:11N 35°06' E 129°06'0 0.0
2014-Apr-11 19:23N 35°06' E 129°06'0 0.0
2014-Apr-11 16:15N 35°06' E 129°06'52111.9
2014-Apr-09 20:33N 35°06' E 139°43'1412.5
2014-Apr-09 19:25N 35°21' E 139°42'1112.3
2014-Apr-09 18:33N 35°29' E 139°50'9 2.0
2014-Apr-09 14:07N 35°37' E 139°46'0 0.0
2014-Apr-09 13:31N 35°37' E 139°46'0 0.0
2014-Apr-09 12:31N 35°37' E 139°46'0 0.0
2014-Apr-09 11:19N 35°37' E 139°46'0 0.0
2014-Apr-09 10:31N 35°37' E 139°46'0 0.2
2014-Apr-09 09:33N 35°37' E 139°46'8 7.7
2014-Apr-09 08:33N 35°31' E 139°52'8 7.6
2014-Apr-09 07:33N 35°26' E 139°46'4 3.7
2014-Apr-09 06:31N 35°26' E 139°41'0 0.0
2014-Apr-09 05:31N 35°26' E 139°41'0 0.0
2014-Apr-09 04:31N 35°26' E 139°41'0 0.0
2014-Apr-09 03:31N 35°26' E 139°41'0 0.0
2014-Apr-09 02:31N 35°26' E 139°41'0 0.0
2014-Apr-09 01:28N 35°26' E 139°41'0 0.0
2014-Apr-09 00:31N 35°26' E 139°41'0 0.0
2014-Apr-08 23:31N 35°26' E 139°41'1 1.4
2014-Apr-08 22:34N 35°26' E 139°42'9 8.7
2014-Apr-08 21:34N 35°17' E 139°45'1010.5
2014-Apr-08 20:34N 35°07' E 139°46'1110.6
2014-Apr-08 19:33N 34°59' E 139°37'  

Dump ship's entire track history

sailing weather and tide predictions

Ds Blue Wave — A8YK2 — position and weather